EW7535 Weather Reports


time (UTC)temp
C
wind
direction
speed
KPH
gust
KPH
rain 1hr
cm
rain 24hr
cm
rain mn
cm
humidity
%
barometer
mb
20260502123024 14 108 0.0 0.0 0.00 0.00 0.00 42 1009.7
20260502121521 15 108 0.0 0.0 0.00 0.00 0.00 41 1009.6
20260502114515 16 120 0.0 6.4 0.00 0.00 0.00 38 1009.5
20260502113015 16 117 0.0 6.4 0.00 0.00 0.00 38 1009.4
20260502111513 16 99 0.0 3.2 0.00 0.00 0.00 39 1009.7
20260502110011 15 131 0.0 0.0 0.00 0.00 0.00 39 1009.9
20260502104505 16 131 0.0 0.0 0.00 0.00 0.00 37 1009.7
20260502103002 17 131 0.0 0.0 0.00 0.00 0.00 35 1009.4
20260502101606 17 10 0.0 0.0 0.00 0.00 0.00 35 1009.4
20260502071531 20 15 0.0 3.2 0.00 0.00 0.00 27 1009.3
20260502070039 21 299 0.0 4.8 0.00 0.00 0.00 28 1009.3
20260502064536 21 259 0.0 4.8 0.00 0.00 0.00 27 1009.4
20260502063028 22 299 1.6 4.8 0.00 0.00 0.00 24 1009.2
20260502061523 22 303 0.0 3.2 0.00 0.00 0.00 25 1009.0
20260502060022 22 307 3.2 6.4 0.00 0.00 0.00 26 1008.9
20260502054520 22 297 0.0 4.8 0.00 0.00 0.00 26 1008.8
20260502053020 23 7 0.0 4.8 0.00 0.00 0.00 25 1008.7
20260502051520 23 295 0.0 1.6 0.00 0.00 0.00 25 1008.6
20260502050019 23 300 1.6 8.0 0.00 0.00 0.00 25 1008.6
20260502044554 23 309 0.0 6.4 0.00 0.00 0.00 25 1008.4
20260502043056 24 307 4.8 11.3 0.00 0.00 0.00 25 1008.4
20260502041518 23 318 4.8 11.3 0.00 0.00 0.00 25 1008.2
20260502040018 23 304 3.2 4.8 0.00 0.00 0.00 26 1008.1
20260502034523 23 298 0.0 0.0 0.00 0.00 0.00 26 1007.8
20260502033016 23 302 1.6 4.8 0.00 0.00 0.00 25 1007.7
20260502031513 24 300 1.6 4.8 0.00 0.00 0.00 24 1007.5
20260502030013 24 308 0.0 3.2 0.00 0.00 0.00 24 1007.2
20260502024543 25 322 0.0 0.0 0.00 0.00 0.00 24 1006.9
20260502023042 25 287 0.0 6.4 0.00 0.00 0.00 22 1006.8
20260502021511 26 303 3.2 6.4 0.00 0.00 0.00 22 1006.6
20260502020010 27 302 4.8 12.9 0.00 0.00 0.00 21 1006.4
20260502014528 27 293 3.2 17.7 0.00 0.00 0.00 20 1006.4
20260502013007 28 291 6.4 16.1 0.00 0.00 0.00 19 1006.2
20260502011506 28 292 8.0 16.1 0.00 0.00 0.00 18 1006.2
20260502010009 28 290 9.7 19.3 0.00 0.00 0.00 19 1006.1
20260502004535 28 292 6.4 17.7 0.00 0.00 0.00 19 1005.9
20260502003034 29 295 3.2 19.3 0.00 0.00 0.00 18 1006.1
20260502001531 29 336 6.4 20.9 0.00 0.00 0.00 17 1006.1
20260502000044 28 229 9.7 20.9 0.00 0.00 0.00 19 1006.1
20260501234528 28 293 11.3 25.7 0.00 0.00 0.00 19 1006.1
20260501233028 29 302 3.2 14.5 0.00 0.00 0.00 20 1006.1
20260501231526 28 294 9.7 25.7 0.00 0.00 0.00 20 1006.2
20260501230025 28 309 0.0 24.1 0.00 0.00 0.00 21 1006.2
20260501224521 29 305 8.0 24.1 0.00 0.00 0.00 20 1006.4
20260501223020 28 255 6.4 30.6 0.00 0.00 0.00 21 1006.6
20260501221523 28 300 6.4 16.1 0.00 0.00 0.00 20 1006.7
20260501220017 28 302 3.2 11.3 0.00 0.00 0.00 21 1006.8
20260501214530 28 269 8.0 25.7 0.00 0.00 0.00 21 1007.0
20260501214523 28 309 8.0 25.7 0.00 0.00 0.00 21 1007.0
20260501213013 28 313 1.6 11.3 0.00 0.00 0.00 20 1007.2
20260501211513 27 309 9.7 29.0 0.00 0.00 0.00 21 1007.5
20260501210009 28 293 3.2 22.5 0.00 0.00 0.00 22 1007.7
20260501204507 28 283 6.4 16.1 0.00 0.00 0.00 21 1007.8
20260501203008 27 259 1.6 14.5 0.00 0.00 0.00 23 1008.0
20260501201613 27 301 6.4 14.5 0.00 0.00 0.00 24 1008.1
20260501200001 27 297 8.0 22.5 0.00 0.00 0.00 24 1008.2
20260501194600 26 246 0.0 17.7 0.00 0.00 0.00 26 1008.4
20260501193102 26 281 6.4 17.7 0.00 0.00 0.00 26 1008.5
20260501191557 26 308 3.2 16.1 0.00 0.00 0.00 27 1008.6
20260501190052 25 288 8.0 27.4 0.00 0.00 0.00 27 1008.8
20260501184553 25 297 6.4 17.7 0.00 0.00 0.00 28 1009.0
20260501183054 24 297 3.2 17.7 0.00 0.00 0.00 31 1009.2
20260501181550 25 302 4.8 19.3 0.00 0.00 0.00 32 1009.4
20260501180026 23 295 8.0 19.3 0.00 0.00 0.00 33 1009.6
20260501174516 23 312 9.7 16.1 0.00 0.00 0.00 35 1009.7
20260501173009 22 280 9.7 20.9 0.00 0.00 0.00 35 1009.8
20260501171505 22 269 6.4 17.7 0.00 0.00 0.00 38 1009.9
20260501170002 21 290 4.8 14.5 0.00 0.00 0.00 40 1009.9
20260501164503 21 288 4.8 11.3 0.00 0.00 0.00 42 1009.8
20260501163100 21 305 4.8 14.5 0.00 0.00 0.00 43 1009.8
20260501161605 21 275 0.0 6.4 0.00 0.00 0.00 45 1009.7
20260501160058 20 165 0.0 6.4 0.00 0.00 0.00 48 1009.7
20260501154559 21 88 1.6 6.4 0.00 0.00 0.00 46 1009.6
20260501153053 21 229 0.0 1.6 0.00 0.00 0.00 49 1009.4
20260501151549 21 208 0.0 4.8 0.00 0.00 0.00 50 1009.3
20260501150044 20 140 0.0 3.2 0.00 0.00 0.00 52 1009.3
20260501144546 19 211 0.0 3.2 0.00 0.00 0.00 53 1009.1
20260501143039 18 171 0.0 1.6 0.00 0.00 0.00 56 1009.1